Regional Weather Roundup
Issued by NWS

Home | Current Version | Previous Version | Text Only | Print | Product List | Glossary On
Versions: 1 2 3 4 5 6 7 8 9 10 11 12 13 14 15 16 17 18 19 20 21 22 23 24 25 26 27 28 29 30 31 32 33 34 35 36 37 38 39 40 41 42 43 44 45 46 47 48 49 50
000
ASUS43 KDTX 280701
RWRMI
MICHIGAN HOURLY REGIONAL WEATHER ROUNDUP
NATIONAL WEATHER SERVICE DETROIT/PONTIAC MI
300 AM EDT MON JUL 28 2014

NOTE: "FAIR" INDICATES FEW OR NO CLOUDS BELOW 12,000 FEET WITH NO
SIGNIFICANT WEATHER AND/OR OBSTRUCTION TO VISIBILITY.

MIZ047>049-052>055-059>063-066>070-074>076-081>083-280800-
SOUTHEAST LOWER MICHIGAN

CITY           SKY/WX    TMP DP  RH WIND       PRES   REMARKS
ADRIAN         PTCLDY    60  58  92 N6        29.76S
ALMA           PTCLDY    61  59  92 NW8       29.80S
ANN ARBOR      MOCLDY    61  57  87 NW8       29.73F
BAD AXE        LGT RAIN  61  60  95 N10G16    29.74R
CARO           HVY RAIN  64  64  99 N17G23    29.73R
DETROIT CITY   LGT RAIN  65  59  81 NW6       29.69F
DETROIT        CLOUDY    61  59  93 W9        29.71F
FLINT          HVY RAIN  63  60  90 NW9       29.73F FOG
GROSSE ILE     MOCLDY    63  59  88 W9        29.69F
HILLSDALE      MOCLDY    62  62  99 NW10      29.78S
HOWELL         DRIZZLE   62  60  94 NW10G16   29.75S

CITY           SKY/WX    TMP DP  RH WIND       PRES   REMARKS
JACKSON        MOCLDY    60  58  92 NW8       29.77S
LAMBERTVILLE   PTCLDY    61  57  88 W3        29.74S
LANSING        CLOUDY    62  59  90 NW12G21   29.79R
LAPEER         LGT RAIN  62  60  94 N9        29.71S
MASON          LGT RAIN  61  59  93 NW13      29.77S
MONROE         PTCLDY    61  57  88 W7        29.70F
MT. CLEMENS    LGT RAIN  63  61  94 NW8       29.67F
PORT HOPE        N/A     64  60  87 VRB3G18   29.72R
PORT HURON     RAIN      61  61 100 NW6       29.67S
TRI CITIES     CLOUDY    63  59  87 N13       29.78R
TROY           MOCLDY    62  60  93 NW10G16   29.70F
SAGINAW HB     CLOUDY    63  63 100 N13G18    29.76R
$$
MIZ043>046-050>051-056>058-064>065-071>073-077>080-280800-
SOUTHWEST LOWER MICHIGAN

CITY           SKY/WX    TMP DP  RH WIND       PRES   REMARKS
BATTLE CREEK   PTCLDY    62  59  90 NW8       29.81S
BENTON HARBOR  CLOUDY    61  57  87 NW8G17    29.85R
BIG RAPIDS     MOCLDY    58  58 100 N6        29.85R
COLDWATER      CLOUDY    63  60  91 NW8       29.80R
FREMONT        PTSUNNY   59  54  83 N14G20    29.86R
HOLLAND        PTCLDY    64  58  80 VRB7      29.85S
GRAND RAPIDS   LGT RAIN  65  62  90 N10       29.83R
IONIA          CLOUDY    62  60  92 N7        29.81R
KALAMAZOO      CLOUDY    63  59  87 N12       29.82R
LUDINGTON      PTCLDY    57  54  89 N9        29.90R
MARSHALL       CLOUDY    60  59  96 W8        29.79S
MOUNT PLEASANT PTCLDY    62  59  91 NW7       29.80S
MUSKEGON       CLOUDY    62  53  72 N9        29.87R
SOUTH HAVEN    CLOUDY    61  58  91 N10G22    29.85S
$$
MIZ016>042-280800-
NORTHERN LOWER MICHIGAN

CITY           SKY/WX    TMP DP  RH WIND       PRES   REMARKS
ALPENA         CLOUDY    60  52  74 N14G23    29.83S
BEAVER ISLAND  CLEAR     53  49  87 N7        29.93R
BELLAIRE       MOCLDY    59  53  80 N3        29.87S
CADILLAC       CLOUDY    56  55  96 N6        29.86S
CHARLEVOIX     PTCLDY    60  56  84 N10G20    29.92S
FRANKFORT      CLEAR     58  52  80 N12G20    29.90S
GAYLORD        CLOUDY    57  52  83 NE8       29.87S
GRAYLING       MOCLDY    59  55  85 N8        29.87R
HARBOR SPRINGS PTCLDY    58  53  83 N8        29.88S
HOUGHTON LAKE  CLEAR     60  54  80 N12       29.84S
MANISTEE       CLEAR     57  52  82 N8        29.90S
OSCODA         CLOUDY    62  55  78 N16       29.79R
PELLSTON       PTCLDY    55  52  89 NW3       29.89S
ROGERS CITY    MOCLDY    60  54  82 N10G18    29.86S
TRAVERSE CITY  PTCLDY    61  54  77 N7        29.87S
$$
MIZ007>008-015-280800-
EASTERN UPPER MICHIGAN

CITY           SKY/WX    TMP DP  RH WIND       PRES   REMARKS
KINROSS        CLOUDY    54  50  87 N5        29.91R
MACKINAC ISLAN CLEAR     55  52  90 N8        29.88F
NEWBERRY       PTCLDY    46  43  90 N7        29.94S
S. S. MARIE    CLOUDY    55  44  66 NE5       29.91R
MUNISING         N/A     54  46  74 N18       30.00R
$$
MIZ004>006-011>014-085-280800-
CENTRAL UPPER MICHIGAN

CITY           SKY/WX    TMP DP  RH WIND       PRES   REMARKS
MANISTIQUE     CLEAR     47  44  87 NW9       29.96R
ESCANABA       CLEAR     48  43  81 N7        29.99F
MENOMINEE      CLEAR     54  43  66 N7        30.00R
SAWYER-GWINN   CLEAR     47  43  86 N7        30.02F
$$
MIZ001>003-009>011-084-280800-
WESTERN UPPER MICHIGAN

CITY           SKY/WX    TMP DP  RH WIND       PRES   REMARKS
IRON MOUNTAIN  CLEAR     50  45  83 N6        30.02S
COPPER HARBOR    N/A     49  45  86 W5        30.04F
$$

ABBREVIATIONS USED IN REMARKS
   TC - TEMPERATURE IN CELSIUS
  WCI - WIND CHILL INDEX
   HX - HEAT INDEX
  VSB - VISIBILITY



USA.gov is the U.S. government's official web portal to all federal, state and local government web resources and services.